Regional Weather Roundup
Issued by NWS

Home | Current Version | Previous Version | Graphics & Text | Print | Product List | Glossary On
Versions: 1 2 3 4 5 6 7 8 9 10 11 12 13 14 15 16 17 18 19 20 21 22 23 24 25 26 27 28 29 30 31 32 33 34 35 36 37 38 39 40 41 42 43 44 45 46 47 48 49 50
000
ASUS45 KCYS 240210
RWRWY

WYOMING REGIONAL WEATHER ROUNDUP
NATIONAL WEATHER SERVICE CHEYENNE WY
800 PM MDT WED JUL 23 2014

NOTE:  "FAIR" INDICATES FEW OR NO CLOUDS BELOW 12,000 FEET
WITH NO SIGNIFICANT WEATHER AND/OR OBSTRUCTIONS TO VISIBILITY.

WYZ001-240300-
YELLOWSTONE NATIONAL PARK

CITY           SKY/WX    TMP DP  RH WIND       PRES   REMARKS
LK YELLOWSTONE   N/A     74  39  28 CALM      30.31F
W YELLOWSTONE  NOT AVBL

$$
WYZ002>013-054>058-071-098>099-240300-
NORTHERN WYOMING

CITY           SKY/WX    TMP DP  RH WIND       PRES   REMARKS
JACKSON        CLEAR     84  34  16 SW6       30.16F
CODY           NOT AVBL
GREYBULL       PTCLDY    92  45  19 SE5       29.89F
WORLAND        PTCLDY    90  47  22 W9        29.91F
SHERIDAN       MOCLDY    82  58  43 SW7       29.94F
BUFFALO        PTCLDY    87  55  33 NW16G23   30.04F
GILLETTE       PTCLDY    85  59  41 SE20      30.01F
HULETT         FAIR      77  61  57 MISG      30.06
NEWCASTLE      FAIR      84  54  34 MISG      30.07

$$
WYZ014>020-022>026-101>103-240300-
CENTRAL WYOMING

CITY           SKY/WX    TMP DP  RH WIND       PRES   REMARKS
BIG PINEY      PTCLDY    83  36  18 W12       30.24F
PINEDALE       PTCLDY    79  34  19 E8        30.26F
DUBOIS         FAIR      81  30  16 W8        30.23F
LANDER         PTCLDY    84  37  18 S16       30.09F
RIVERTON       MOCLDY    89  32  13 SW17G25   30.08F
CASPER         CLOUDY    88  37  16 S18G25    30.09R
DOUGLAS        PTCLDY    84  42  22 S13       30.11S

$$
WYZ021-027>030-104>119-240300-
SOUTHERN WYOMING

CITY           SKY/WX    TMP DP  RH WIND       PRES   REMARKS
EVANSTON       PTCLDY    81  42  25 S13G22    30.25S
KEMMERER       PTCLDY   N/A N/A N/A SW8       30.26S
FORT BRIDGER   FAIR      79  42  27 S16G23    30.28F
ROCK SPRINGS   CLOUDY    83  31  15 S15       30.25R
DIXON          FAIR      86  30  13 SW9       30.25S
RAWLINS        MOCLDY    88  24  10 W15       30.24F
SARATOGA       FAIR      86  32  14 SW13      30.28R
LARAMIE        LGT RAIN  72  48  42 MISG      30.36S
CHEYENNE       MOCLDY    77  62  59 S13G21    30.28R
TORRINGTON     CLOUDY    85  64  49 SE7       30.09S
PINE BLUFFS    FAIR      82  52  34 SW12G22   30.21S

$$



USA.gov is the U.S. government's official web portal to all federal, state and local government web resources and services.